CAPE
1242 1186 1201 1151 1099 1042 819 831 799 779 662 616 566 598 496 340 541 549 512 786 1036 1018 1316 955 455 207 132 118 31 0 619 1000 767 863 1181 1434 1533 1968 2043 1816 1560 1261 757 712 619 586 491 448 306 533 790 426 278 206 188 167 104 132 132 111 92 38 6 6 1 0 0 0 0 0 0 1 1 1 1 0 0 0 1 1 0 0 0 0 1
1139 1075 1089 1128 1067 970 806 697 707 596 539 574 556 495 501 301 585 716 780 1020 1343 1481 1325 780 560 387 305 270 83 28 1 821 970 774 1020 1290 1436 1900 2104 2059 1872 1501 1081 834 684 628 506 478 340 580 884 578 447 396 267 196 190 142 102 82 80 67 21 4 3 1 1 0 0 0 0 0 0 0 1 0 0 0 0 0 0 0 0 0 1
1005 1029 993 1065 1096 937 862 765 643 515 528 520 544 598 395 150 401 558 692 967 1258 1269 795 617 567 546 311 310 234 88 97 232 398 567 679 923 1315 1765 2135 2176 1832 1558 1177 897 984 651 566 515 282 444 824 715 713 517 416 310 299 238 133 84 48 20 7 2 2 0 0 0 0 0 0 0 0 0 0 0 0 0 0 0 0 0 0 0 0
1147 1132 928 964 946 812 789 646 597 573 576 544 632 607 541 434 458 656 735 1023 1087 851 801 570 492 584 514 386 432 317 128 118 235 431 661 561 837 978 1127 1162 1822 1515 1367 920 1001 1009 574 410 414 275 232 390 876 751 556 521 392 343 214 125 84 67 17 5 0 0 0 0 0 0 0 0 0 0 0 0 0 0 0 0 0 0 0 0 0
1195 1146 1207 881 881 853 875 747 674 609 647 732 638 561 677 582 553 560 826 881 850 593 652 620 511 465 695 772 515 437 399 206 284 473 752 646 730 818 814 1020 1228 1256 1322 1611 1568 1201 673 540 484 419 344 272 821 607 781 697 562 387 288 214 121 80 44 18 3 0 0 0 1 1 1 1 0 0 0 0 0 0 0 0 0 0 0 0 0
1069 1058 1039 958 723 802 845 682 702 779 798 744 493 566 665 810 786 727 1183 600 760 521 393 384 340 435 602 672 528 452 363 455 493 542 622 688 592 761 738 1018 1096 1027 1426 1680 1254 1219 944 840 531 390 367 348 292 240 658 618 636 545 399 338 233 110 93 55 21 5 0 0 0 0 0 0 0 0 0 0 0 0 0 0 0 0 0 0 0
912 766 1024 887 754 756 685 675 664 880 752 682 679 745 717 685 552 721 771 854 798 624 516 236 312 388 552 705 716 718 435 459 465 524 696 552 478 492 551 971 1149 1107 1028 987 1253 1161 1179 897 547 543 393 315 217 288 298 290 738 716 505 475 424 285 152 145 94 6 3 3 0 1 0 0 0 0 0 0 0 0 0 0 0 0 0 0 0
672 1025 968 881 675 556 616 617 623 777 827 973 754 590 565 522 443 688 818 834 961 646 534 448 434 413 541 886 725 480 274 352 475 612 642 824 729 590 691 1122 1206 1312 1228 783 684 913 1154 1106 728 809 470 334 311 354 352 357 425 780 777 551 548 545 316 207 197 91 27 15 1 1 1 0 0 0 1 1 0 0 0 1 0 0 0 0 0
892 1165 781 720 540 561 648 706 672 818 807 1015 838 637 521 504 420 538 711 670 759 908 751 524 306 311 578 1016 794 527 549 590 460 551 564 538 721 836 753 1007 1123 1734 1133 1031 748 822 1314 1120 1183 966 697 570 323 291 349 459 387 427 592 585 778 595 592 406 248 266 112 64 32 11 3 0 0 1 0 0 0 0 0 0 0 0 0 0 0
1002 843 577 548 481 683 676 744 904 1058 1018 928 766 730 612 700 662 547 731 813 870 627 532 408 349 319 513 657 934 713 706 610 530 451 248 394 663 759 857 908 963 1030 1139 1065 878 785 688 548 499 523 729 766 688 328 327 390 524 339 656 614 883 739 706 639 385 327 267 139 102 33 6 0 0 2 0 0 0 0 0 0 0 0 0 0 0
881 978 1022 610 651 808 910 1004 979 992 829 952 764 774 804 776 857 760 824 904 836 680 520 454 440 443 664 678 797 735 675 490 432 408 166 458 838 861 824 965 1020 952 919 936 1051 786 656 648 436 405 371 621 1382 1237 1281 1396 1293 387 404 594 955 891 670 744 619 393 363 324 192 45 16 6 0 0 1 1 0 0 0 0 0 0 0 0 0
980 823 762 613 700 1001 767 856 852 905 810 866 822 764 760 717 926 897 839 828 907 661 617 542 492 543 592 664 781 686 624 567 406 260 165 281 341 554 690 788 736 1042 950 798 1023 758 495 515 594 491 412 553 1171 1037 1056 1036 1271 1142 1076 748 648 782 824 796 715 407 550 418 356 134 48 20 8 0 0 1 0 0 1 0 1 0 0 0 0
794 858 700 887 697 901 924 896 842 704 736 513 666 816 654 758 928 1023 878 900 822 674 589 538 488 604 628 709 655 518 433 314 475 396 204 128 234 493 520 630 641 652 831 914 851 758 518 455 504 612 602 405 736 802 640 845 1195 1189 820 716 695 752 711 655 543 552 536 567 435 355 101 76 31 6 0 0 2 1 0 0 0 0 0 0 0
630 707 650 578 629 676 738 867 821 562 818 808 960 775 837 920 956 734 777 626 667 676 655 638 436 479 618 649 487 374 218 124 125 170 243 89 283 416 470 667 588 483 620 674 753 745 738 572 601 622 614 504 616 769 677 667 898 883 897 926 765 667 605 720 725 502 592 496 359 357 293 212 107 61 2 0 1 2 1 0 0 0 1 0 0
712 608 480 529 617 588 524 635 626 450 618 569 704 640 785 910 894 816 758 656 760 768 849 689 446 435 550 464 423 365 250 141 87 150 128 0 0 91 330 563 530 524 499 568 614 777 794 594 562 760 646 548 631 765 707 616 586 572 515 554 572 668 694 631 671 588 602 586 648 550 424 380 231 169 80 20 2 0 2 1 0 0 0 1 1
654 482 480 509 505 511 537 321 647 521 523 478 658 507 786 509 351 548 428 474 771 563 741 759 547 393 442 367 149 415 320 149 51 63 99 74 32 74 153 318 389 428 420 469 574 783 656 874 813 678 682 776 728 744 444 660 578 574 478 434 438 516 542 717 495 746 746 557 529 518 421 400 391 382 290 193 83 24 0 0 0 0 0 0 0
4 65 106 38 17 0 6 6 0 102 512 231 266 376 722 548 336 383 686 424 579 643 640 619 568 871 302 15 53 256 288 101 88 47 54 4 66 175 392 167 271 280 420 454 537 601 631 640 616 486 481 516 522 576 569 535 475 385 433 394 169 0 0 216 642 628 631 643 613 383 411 487 432 441 367 382 312 227 76 13 0 0 0 0 0
0 8 24 23 16 20 0 0 8 2 1 21 16 0 4 67 423 406 609 522 350 382 503 486 739 759 728 751 532 294 196 119 96 37 2 3 14 0 0 113 270 131 35 224 406 372 374 390 123 364 382 419 432 418 410 388 451 416 95 0 0 0 0 0 350 553 936 790 793 414 464 512 469 406 409 366 399 320 218 118 33 4 0 5 0
0 0 44 145 27 125 86 4 11 4 103 20 6 5 77 198 278 352 510 539 272 384 273 397 588 504 688 613 481 599 285 253 45 15 5 2 0 0 0 26 102 274 132 120 110 91 100 105 145 215 109 182 75 255 238 244 244 260 0 0 0 0 0 256 381 583 713 701 621 607 731 576 334 280 395 474 398 291 325 289 214 192 178 180 182
0 0 23 23 0 0 0 0 0 2 0 0 0 8 156 210 317 368 498 425 208 235 351 422 296 324 384 479 543 537 382 50 1 0 0 0 0 0 0 0 0 0 0 26 26 20 79 242 150 82 1 0 0 0 0 0 0 0 0 0 0 0 33 196 414 466 418 425 784 735 719 579 450 372 302 322 403 307 442 372 344 296 414 293 187
0 0 0 0 0 0 0 0 0 2 0 0 0 6 106 89 227 218 294 297 275 374 495 594 337 241 416 344 501 520 429 215 104 0 0 0 0 0 0 0 0 0 0 0 2 28 48 61 33 0 0 0 70 0 0 0 0 0 0 0 0 0 4 150 97 44 10 214 481 872 968 871 661 433 234 214 173 174 257 288 330 230 276 147 161
0 0 0 0 0 0 0 0 0 0 0 0 0 0 0 0 0 5 0 0 0 1 4 0 164 173 370 470 650 531 368 234 164 14 0 0 0 0 0 0 0 0 0 0 0 0 0 0 0 0 0 0 0 0 0 0 0 0 0 0 0 0 0 0 0 0 0 0 70 173 282 234 214 145 53 38 73 93 101 119 142 200 192 173 169
0 0 0 0 0 0 0 0 0 0 0 0 0 0 0 0 0 0 0 0 0 0 0 0 0 0 146 460 434 438 447 293 194 0 0 0 0 0 0 0 0 0 0 0 0 0 0 0 0 0 0 0 0 0 0 0 0 0 0 0 0 0 0 0 0 0 0 0 0 0 3 0 0 0 0 0 0 0 0 0 0 4 2 13 95
0 0 0 0 0 0 0 0 0 0 0 0 0 0 0 0 0 0 0 0 0 0 0 0 0 0 0 0 0 159 245 303 202 4 0 0 0 0 0 0 0 0 0 0 0 0 0 0 0 0 0 0 0 0 0 0 0 0 0 0 0 0 0 0 0 0 0 0 0 0 0 0 0 0 0 0 0 0 0 0 0 0 0 0 0
0 0 0 0 0 0 0 0 0 0 0 0 0 0 0 0 0 0 0 0 0 0 0 0 0 0 0 0 0 0 110 324 57 8 0 0 0 0 0 0 0 0 0 0 0 0 0 0 0 0 0 0 0 0 0 0 0 0 0 0 0 0 0 0 0 0 0 0 0 0 0 0 0 0 0 0 0 0 0 0 0 0 0 0 0
0 0 0 0 0 0 0 0 0 0 0 0 0 0 0 0 0 0 0 0 0 0 0 0 0 0 0 0 0 0 0 89 48 69 31 0 0 0 0 0 0 0 0 0 0 0 0 0 0 0 0 0 0 0 0 0 0 0 0 0 0 0 0 0 0 0 0 0 0 0 0 0 0 0 0 0 0 0 0 0 0 0 0 0 0
0 0 0 0 0 0 0 0 0 0 0 0 0 0 0 0 0 0 0 0 0 0 0 0 0 0 0 0 0 0 0 0 157 177 119 1 0 0 0 0 0 0 0 0 0 0 0 0 0 0 0 0 0 0 0 0 0 0 0 0 0 0 0 0 0 0 0 0 0 0 0 0 0 0 0 0 0 0 0 0 0 0 0 0 0
0 0 0 0 0 0 0 0 0 0 0 0 0 0 0 0 0 0 0 0 0 0 0 0 0 0 0 0 0 0 0 0 0 7 48 27 0 0 0 0 0 0 0 0 0 0 0 0 0 0 0 0 0 0 0 0 0 0 0 0 0 0 0 0 0 0 0 0 0 0 0 0 0 0 0 0 0 0 0 0 0 0 0 0 0
0 0 0 0 0 0 0 0 0 0 0 0 0 0 0 0 0 0 0 0 0 0 0 0 0 0 0 0 0 0 0 0 0 0 0 0 0 0 0 0 0 0 0 0 0 0 0 0 0 0 0 0 0 0 0 0 0 0 0 0 0 0 0 0 0 0 0 0 0 0 0 0 0 0 0 0 0 0 0 0 0 0 0 0 0
0 0 0 0 0 10 0 0 0 0 0 0 0 0 0 0 0 0 0 0 0 0 0 0 0 0 0 0 0 0 0 0 0 0 0 0 0 0 0 0 0 0 0 0 0 0 0 0 0 0 0 0 0 0 0 0 0 0 0 0 0 0 0 0 0 0 0 0 0 0 0 0 0 0 0 0 0 0 0 0 0 0 0 0 0
0 0 0 0 0 0 0 0 0 0 0 0 0 0 0 0 0 0 0 0 0 0 0 0 0 0 0 0 0 0 0 0 0 0 0 0 0 0 0 0 0 0 0 0 0 0 0 0 0 0 0 0 0 0 0 0 0 0 0 0 0 0 0 0 0 0 0 0 0 0 0 0 0 0 0 0 0 0 0 0 0 0 0 0 0
0 0 0 0 0 0 0 0 0 0 0 0 0 0 0 0 0 0 0 0 0 0 0 0 0 0 0 0 0 0 0 0 0 0 0 0 0 0 0 0 0 0 0 0 0 0 0 0 0 0 0 0 0 0 0 0 0 0 0 0 0 0 0 0 0 0 0 0 0 0 0 0 0 0 0 0 0 0 0 0 0 0 0 0 0
0 0 0 0 0 0 0 0 0 0 0 0 0 1 4 0 0 0 0 0 0 0 0 0 0 0 0 0 0 0 0 0 0 0 0 0 0 0 0 0 0 0 0 0 0 0 0 0 0 0 0 0 0 0 0 0 0 0 0 0 0 0 0 0 0 0 0 0 0 0 0 0 0 0 0 0 0 0 0 0 0 0 0 0 0
2 0 0 0 0 0 0 0 1 13 10 18 21 8 1 4 21 84 2 0 0 0 0 0 0 0 0 0 0 0 0 0 0 0 0 0 0 0 0 0 0 0 0 0 0 0 0 0 0 0 0 0 0 0 0 0 0 0 0 0 0 0 0 0 0 0 0 0 0 0 0 0 0 0 0 0 0 0 0 0 0 0 0 0 0
14 1 0 0 0 0 1 2 7 23 34 71 143 112 21 10 31 8 7 0 0 11 11 0 0 0 0 0 0 0 0 0 0 0 0 0 0 0 0 0 0 0 0 0 0 0 0 0 0 0 0 0 0 0 0 0 0 0 0 0 0 0 0 0 0 0 0 0 0 0 0 0 0 0 0 0 0 0 0 0 0 0 0 0 0
32 6 2 5 3 4 4 14 60 80 118 112 162 141 54 46 165 146 167 69 14 6 11 16 7 0 0 0 0 0 0 0 0 0 0 0 0 0 0 0 0 0 0 0 0 0 0 0 0 0 0 0 0 0 0 0 0 0 0 0 0 0 0 0 0 0 0 0 0 0 0 0 0 0 0 0 0 0 0 0 0 0 0 0 0
36 19 4 4 11 16 21 19 25 83 80 47 260 197 228 213 196 156 154 104 84 93 3 9 50 0 0 0 0 0 0 0 0 0 0 0 0 0 0 0 0 0 0 0 0 0 0 0 0 0 0 0 0 0 0 0 0 0 0 0 0 0 0 0 0 0 0 0 0 0 0 0 0 0 0 0 0 0 0 0 0 0 0 0 0
77 27 0 8 7 26 21 0 0 211 288 304 297 216 251 231 238 166 176 48 60 174 176 107 0 0 0 0 0 0 2 6 2 0 0 0 0 0 0 0 0 0 0 0 0 0 0 0 0 0 0 0 0 0 0 0 0 0 0 0 0 0 0 0 0 0 0 0 0 0 0 0 0 0 0 0 0 0 0 0 0 0 0 0 0
19 39 0 27 2 2 0 2 12 178 203 227 236 239 232 226 227 163 40 16 4 10 4 0 0 1 0 2 0 0 2 25 0 0 0 0 0 0 0 0 0 0 0 0 0 0 0 6 6 6 6 0 0 0 0 0 0 0 0 0 0 0 0 0 0 0 0 0 0 0 0 0 0 0 0 0 0 0 0 0 0 0 0 0 0
11 2 2 48 0 5 30 194 100 13 0 0 132 66 129 29 106 111 31 0 2 0 0 0 0 0 2 22 7 1 31 31 7 0 0 0 0 0 0 0 0 0 0 0 0 1 3 3 3 3 0 0 0 0 0 0 0 0 0 0 0 0 0 0 0 0 0 0 0 0 0 0 0 0 0 0 0 0 0 0 0 0 0 0 0
4 2 1 68 196 58 113 94 90 7 0 0 0 164 131 35 3 144 0 0 0 1 12 17 16 0 5 8 9 8 0 280 195 190 176 0 0 0 0 0 0 0 0 0 0 0 3 0 0 0 0 0 0 0 0 0 0 0 0 0 0 0 0 0 0 0 0 0 0 0 0 0 0 0 0 0 0 0 0 0 0 0 0 0 0
110 27 52 46 13 51 152 127 15 0 0 0 0 121 155 76 13 13 0 19 21 2 9 18 8 110 206 23 252 274 308 345 318 310 277 221 192 136 0 0 0 0 0 0 0 0 0 0 0 0 0 0 0 0 0 0 0 0 0 0 0 0 0 0 0 0 0 0 0 0 0 0 0 0 0 0 0 0 0 0 0 0 0 0 0
315 268 61 30 26 18 35 230 220 119 0 0 0 165 244 286 329 1 15 24 22 20 39 3 8 55 26 177 340 376 371 378 358 331 315 303 303 306 235 0 0 0 0 0 0 0 0 0 0 0 0 0 0 0 0 0 0 0 0 0 0 0 0 0 0 0 0 0 0 0 0 0 0 0 0 0 0 0 0 0 0 0 0 0 0
418 364 60 20 2 0 6 1 0 61 0 192 412 310 328 252 143 12 31 68 51 23 74 72 40 124 136 301 354 360 365 295 82 0 101 121 116 105 0 0 0 0 0 0 0 0 0 0 0 0 0 0 0 0 0 0 0 0 0 0 0 0 0 0 0 0 0 0 0 0 0 0 0 0 0 0 0 0 0 0 0 0 0 0 0
473 421 352 31 16 1 1 129 226 14 0 0 13 0 0 224 559 595 533 67 123 23 61 32 11 131 282 388 420 428 332 177 9 0 0 0 0 0 0 0 0 0 0 0 0 0 0 0 0 0 0 0 0 0 0 0 0 0 0 0 0 0 0 0 0 0 0 0 0 0 0 0 0 0 0 0 0 0 0 0 0 0 0 0 0
529 444 374 317 204 284 274 285 296 257 0 0 0 0 0 106 303 150 121 366 257 0 0 0 0 170 367 488 405 262 86 0 0 0 0 0 0 0 0 0 0 0 0 0 0 0 0 0 0 0 0 0 0 0 0 0 0 0 0 0 0 0 0 0 0 0 0 0 0 0 0 0 0 0 0 0 0 0 0 0 0 0 0 0 0
512 517 493 310 246 0 0 238 196 0 0 0 223 0 0 169 0 0 0 0 0 0 0 0 0 0 376 254 0 0 0 0 0 0 0 0 0 0 0 0 0 0 0 0 0 0 0 0 0 0 0 0 0 0 0 0 0 0 0 0 0 0 0 0 0 0 0 0 0 0 0 0 0 0 0 0 0 0 0 0 0 0 0 0 0
471 443 76 319 319 294 0 2 5 5 69 251 250 0 0 0 0 0 0 0 0 0 0 0 0 0 54 87 0 0 0 0 0 0 0 0 0 0 0 0 0 0 0 0 0 0 0 0 0 0 0 0 0 0 0 0 0 0 0 0 0 0 0 0 0 0 0 0 0 0 0 0 0 0 0 0 0 0 0 0 0 0 0 0 0
493 423 416 362 127 23 8 77 0 0 228 315 116 0 1 3 3 1 0 0 0 0 0 0 0 0 0 0 0 0 0 0 0 0 0 0 0 0 0 0 0 0 0 0 0 0 0 0 0 0 0 0 0 0 0 0 0 0 0 0 0 0 0 0 0 0 0 0 0 0 0 0 0 0 0 0 0 0 0 0 0 0 0 0 0
448 450 301 0 235 341 353 0 0 226 354 361 193 0 0 0 0 0 0 0 0 0 0 0 0 0 0 0 0 0 0 0 0 0 0 0 0 0 0 0 0 0 0 0 0 0 0 0 0 0 0 0 0 0 0 0 0 0 0 0 0 0 0 0 0 0 0 0 0 0 0 0 0 0 0 0 0 0 0 0 0 0 0 0 0
288 203 0 0 12 342 380 0 0 367 336 407 375 202 86 0 0 0 0 0 0 0 0 0 0 0 0 0 0 0 0 0 0 0 0 0 0 0 0 0 0 0 0 0 0 0 0 0 0 0 0 0 0 0 0 0 0 0 0 0 0 0 0 0 0 0 0 0 0 0 0 0 0 0 0 0 0 0 0 0 0 0 0 0 0
Wind_Speed
8 9 9 10 11 12 12 13 13 14 14 13 13 14 12 12 13 13 13 13 13 14 17 19 19 19 19 20 nan nan 20 20 19 18 20 20 20 20 21 21 21 20 19 19 21 22 22 21 19 21 22 22 21 21 21 21 22 22 23 23 nan nan nan nan nan nan nan nan nan nan nan nan nan nan nan nan nan nan nan nan nan nan nan nan nan
9 10 9 10 11 11 12 12 14 14 13 11 11 11 11 14 13 13 13 12 11 12 18 19 18 18 19 18 nan nan nan 22 22 22 21 20 20 18 20 20 19 19 18 17 22 23 23 22 20 22 22 23 22 22 21 20 21 21 22 nan nan nan nan nan nan nan nan nan nan nan nan nan nan nan nan nan nan nan nan nan nan nan nan nan nan
7 8 8 9 8 9 10 10 12 13 12 10 10 11 12 14 14 13 12 11 11 13 19 19 16 18 18 18 17 nan nan 23 24 24 23 23 21 18 18 19 19 17 16 15 20 24 24 23 22 22 21 21 23 24 21 20 20 20 21 nan nan nan nan nan nan nan nan nan nan nan nan nan nan nan nan nan nan nan nan nan nan nan nan nan nan
4 5 4 6 7 7 7 8 9 11 11 11 12 10 11 12 11 10 10 10 11 16 18 19 16 15 15 17 16 18 21 23 23 23 20 25 23 20 20 15 17 18 17 18 22 24 23 24 24 22 20 21 23 24 22 21 20 20 20 20 nan nan nan nan nan nan nan nan nan nan nan nan nan nan nan nan nan nan nan nan nan nan nan nan nan
3 3 4 5 6 6 7 6 8 10 11 13 12 10 10 11 9 9 9 11 13 15 17 17 16 14 13 15 14 16 20 22 20 19 19 20 19 17 16 10 13 19 21 22 24 22 23 24 24 24 22 23 24 22 20 21 21 21 21 21 21 nan nan nan nan nan nan nan nan nan nan nan nan nan nan nan nan nan nan nan nan nan nan nan nan
1 3 3 5 6 8 7 8 8 11 14 14 11 8 8 9 8 8 9 11 13 13 15 15 13 12 12 9 10 13 18 20 18 16 16 16 17 16 16 16 15 15 17 22 25 25 24 23 25 25 25 25 23 22 21 21 20 20 21 22 21 21 nan nan nan nan nan nan nan nan nan nan nan nan nan nan nan nan nan nan nan nan nan nan nan
1 3 4 6 8 10 10 9 10 12 14 11 9 7 8 8 8 8 8 10 12 12 11 10 10 11 9 8 9 12 14 17 16 15 16 15 15 15 12 11 12 12 13 16 21 25 26 26 27 25 25 24 23 23 22 22 20 19 21 21 21 21 21 21 nan nan nan nan nan nan nan nan nan nan nan nan nan nan nan nan nan nan nan nan nan
5 6 9 10 11 12 10 11 10 10 10 8 7 7 8 8 7 7 9 9 10 9 8 7 6 7 5 6 8 10 13 14 16 15 14 11 10 10 9 11 10 10 12 14 16 20 26 28 31 28 24 21 22 23 24 25 23 21 20 21 20 20 20 21 21 nan nan nan nan nan nan nan nan nan nan nan nan nan nan nan nan nan nan nan nan
9 10 13 12 11 11 8 9 8 7 8 6 6 5 6 7 5 6 7 8 8 8 7 5 3 3 4 6 7 8 11 13 13 11 9 9 8 8 9 8 8 12 13 13 14 17 21 25 24 24 24 24 22 22 23 26 24 24 21 21 21 21 20 21 21 22 22 nan nan nan nan nan nan nan nan nan nan nan nan nan nan nan nan nan nan
13 14 13 11 9 7 7 8 6 7 8 7 6 6 6 7 6 5 6 6 7 8 6 4 3 4 7 6 6 8 8 10 10 9 9 7 5 7 9 8 8 9 12 12 14 15 15 17 16 16 22 23 23 22 22 24 26 25 24 23 23 22 21 22 22 22 23 23 24 nan nan nan nan nan nan nan nan nan nan nan nan nan nan nan nan
15 13 11 10 7 7 7 8 8 8 9 8 8 8 8 8 8 6 5 6 8 6 5 3 4 5 7 6 10 10 8 7 9 9 9 9 9 9 10 9 8 8 10 11 12 13 13 12 10 10 14 17 20 25 27 28 26 22 22 24 24 23 22 23 25 23 24 24 25 nan nan nan nan nan nan nan nan nan nan nan nan nan nan nan nan
14 12 11 9 8 8 8 7 9 10 10 9 9 9 7 7 8 8 6 8 9 7 6 5 3 5 6 6 9 13 10 7 7 9 8 9 10 8 9 9 8 8 9 9 11 11 12 10 7 7 8 10 15 22 23 22 22 23 24 25 23 22 22 22 24 25 24 26 26 26 nan nan nan nan nan nan nan nan nan nan nan nan nan nan nan
13 12 12 11 9 9 9 9 9 9 9 8 7 8 7 8 7 8 7 7 7 7 5 5 5 6 7 9 13 14 12 10 6 7 11 10 10 9 9 10 8 8 8 8 9 10 11 9 7 6 6 7 8 13 14 13 16 20 20 21 25 25 22 23 24 22 23 25 27 26 28 nan nan nan nan nan nan nan nan nan nan nan nan nan nan
13 13 13 13 11 11 10 10 9 9 8 7 7 9 9 9 9 8 6 8 8 8 4 5 6 6 8 10 14 15 13 9 8 10 12 nan 11 10 8 8 7 6 7 9 10 10 9 8 7 4 3 4 6 6 7 8 10 15 18 18 19 19 16 18 18 18 22 23 24 26 28 28 28 nan nan nan nan nan nan nan nan nan nan nan nan
14 14 15 14 13 13 11 11 10 9 8 7 7 8 10 11 10 6 7 8 9 8 6 5 6 6 9 12 10 12 11 12 nan 11 12 nan nan nan 9 9 9 7 9 11 12 10 10 8 8 6 5 6 7 7 7 8 11 15 15 15 15 15 14 16 17 23 27 18 19 20 26 27 27 27 nan nan nan nan nan nan nan nan nan nan nan
15 15 14 14 14 14 13 12 9 8 9 8 7 7 9 8 8 7 8 9 7 7 6 5 7 11 10 9 9 12 14 14 nan nan nan nan nan nan 11 12 11 9 9 11 11 11 10 9 9 8 8 10 9 9 8 10 13 14 13 13 13 14 14 14 15 18 15 14 16 17 20 21 22 24 26 28 nan nan nan nan nan nan nan nan nan
nan nan 17 nan nan nan nan nan nan 11 11 10 8 6 7 6 6 6 7 9 8 7 6 7 9 8 11 nan nan 11 11 15 nan nan nan nan nan 12 13 13 12 10 10 9 10 11 11 11 10 10 10 11 12 12 12 12 11 10 11 13 15 nan nan 15 14 15 15 15 15 18 17 15 17 19 23 25 27 29 nan nan nan nan nan nan nan
nan nan nan nan nan nan nan nan nan nan nan nan nan nan nan nan 6 6 7 7 9 8 7 8 9 12 11 11 11 12 15 12 nan nan nan nan nan nan nan 11 10 11 nan 11 12 12 11 12 12 12 13 13 14 15 14 13 12 12 nan nan nan nan nan nan 20 17 14 13 15 18 16 12 15 22 18 17 22 26 26 27 nan nan nan nan nan
nan nan nan 16 nan 13 nan nan nan nan 11 nan nan nan nan 9 8 9 8 9 10 9 10 8 10 12 13 13 14 15 16 15 nan nan nan nan nan nan nan nan 10 11 14 14 13 nan 12 13 14 14 14 14 nan 15 15 14 17 18 nan nan nan nan nan 22 22 24 22 21 20 17 17 17 16 17 14 14 15 19 23 24 25 25 26 27 28
nan nan nan nan nan nan nan nan nan nan nan nan nan nan 11 10 9 8 9 9 10 11 9 8 12 10 13 16 15 17 16 nan nan nan nan nan nan nan nan nan nan nan nan nan nan nan nan 14 15 nan nan nan nan nan nan nan nan nan nan nan nan nan nan 23 26 26 26 29 27 26 25 22 19 20 17 18 19 18 21 25 29 30 26 26 28
nan nan nan nan nan nan nan nan nan nan nan nan nan nan 10 nan 10 11 10 10 9 10 11 10 12 11 14 14 15 17 18 17 17 nan nan nan nan nan nan nan nan nan nan nan nan nan nan nan nan nan nan nan nan nan nan nan nan nan nan nan nan nan nan 24 nan nan nan 29 33 35 35 33 31 26 22 20 19 19 15 16 19 22 22 24 21
nan nan nan nan nan nan nan nan nan nan nan nan nan nan nan nan nan nan nan nan nan nan nan nan 12 12 12 14 14 16 18 19 17 nan nan nan nan nan nan nan nan nan nan nan nan nan nan nan nan nan nan nan nan nan nan nan nan nan nan nan nan nan nan nan nan nan nan nan nan 34 34 34 33 32 nan nan nan nan 27 26 27 29 28 22 20
nan nan nan nan nan nan nan nan nan nan nan nan nan nan nan nan nan nan nan nan nan nan nan nan nan nan 15 15 16 17 16 17 18 nan nan nan nan nan nan nan nan nan nan nan nan nan nan nan nan nan nan nan nan nan nan nan nan nan nan nan nan nan nan nan nan nan nan nan nan nan nan nan nan nan nan nan nan nan nan nan nan nan nan nan nan
nan nan nan nan nan nan nan nan nan nan nan nan nan nan nan nan nan nan nan nan nan nan nan nan nan nan nan nan nan 16 18 19 16 nan nan nan nan nan nan nan nan nan nan nan nan nan nan nan nan nan nan nan nan nan nan nan nan nan nan nan nan nan nan nan nan nan nan nan nan nan nan nan nan nan nan nan nan nan nan nan nan nan nan nan nan
nan nan nan nan nan nan nan nan nan nan nan nan nan nan nan nan nan nan nan nan nan nan nan nan nan nan nan nan nan nan 17 16 nan nan nan nan nan nan nan nan nan nan nan nan nan nan nan nan nan nan nan nan nan nan nan nan nan nan nan nan nan nan nan nan nan nan nan nan nan nan nan nan nan nan nan nan nan nan nan nan nan nan nan nan nan
nan nan nan nan nan nan nan nan nan nan nan nan nan nan nan nan nan nan nan nan nan nan nan nan nan nan nan nan nan nan nan nan nan nan nan nan nan nan nan nan nan nan nan nan nan nan nan nan nan nan nan nan nan nan nan nan nan nan nan nan nan nan nan nan nan nan nan nan nan nan nan nan nan nan nan nan nan nan nan nan nan nan nan nan nan
nan nan nan nan nan nan nan nan nan nan nan nan nan nan nan nan nan nan nan nan nan nan nan nan nan nan nan nan nan nan nan nan 19 19 17 nan nan nan nan nan nan nan nan nan nan nan nan nan nan nan nan nan nan nan nan nan nan nan nan nan nan nan nan nan nan nan nan nan nan nan nan nan nan nan nan nan nan nan nan nan nan nan nan nan nan
nan nan nan nan nan nan nan nan nan nan nan nan nan nan nan nan nan nan nan nan nan nan nan nan nan nan nan nan nan nan nan nan nan nan nan nan nan nan nan nan nan nan nan nan nan nan nan nan nan nan nan nan nan nan nan nan nan nan nan nan nan nan nan nan nan nan nan nan nan nan nan nan nan nan nan nan nan nan nan nan nan nan nan nan nan
nan nan nan nan nan nan nan nan nan nan nan nan nan nan nan nan nan nan nan nan nan nan nan nan nan nan nan nan nan nan nan nan nan nan nan nan nan nan nan nan nan nan nan nan nan nan nan nan nan nan nan nan nan nan nan nan nan nan nan nan nan nan nan nan nan nan nan nan nan nan nan nan nan nan nan nan nan nan nan nan nan nan nan nan nan
nan nan nan nan nan nan nan nan nan nan nan nan nan nan nan nan nan nan nan nan nan nan nan nan nan nan nan nan nan nan nan nan nan nan nan nan nan nan nan nan nan nan nan nan nan nan nan nan nan nan nan nan nan nan nan nan nan nan nan nan nan nan nan nan nan nan nan nan nan nan nan nan nan nan nan nan nan nan nan nan nan nan nan nan nan
nan nan nan nan nan nan nan nan nan nan nan nan nan nan nan nan nan nan nan nan nan nan nan nan nan nan nan nan nan nan nan nan nan nan nan nan nan nan nan nan nan nan nan nan nan nan nan nan nan nan nan nan nan nan nan nan nan nan nan nan nan nan nan nan nan nan nan nan nan nan nan nan nan nan nan nan nan nan nan nan nan nan nan nan nan
nan nan nan nan nan nan nan nan nan nan nan nan nan nan nan nan nan nan nan nan nan nan nan nan nan nan nan nan nan nan nan nan nan nan nan nan nan nan nan nan nan nan nan nan nan nan nan nan nan nan nan nan nan nan nan nan nan nan nan nan nan nan nan nan nan nan nan nan nan nan nan nan nan nan nan nan nan nan nan nan nan nan nan nan nan
nan nan nan nan nan nan nan nan nan nan nan nan nan nan nan nan nan nan nan nan nan nan nan nan nan nan nan nan nan nan nan nan nan nan nan nan nan nan nan nan nan nan nan nan nan nan nan nan nan nan nan nan nan nan nan nan nan nan nan nan nan nan nan nan nan nan nan nan nan nan nan nan nan nan nan nan nan nan nan nan nan nan nan nan nan
nan nan nan nan nan nan nan nan nan nan nan nan nan nan nan nan nan nan nan nan nan nan nan nan nan nan nan nan nan nan nan nan nan nan nan nan nan nan nan nan nan nan nan nan nan nan nan nan nan nan nan nan nan nan nan nan nan nan nan nan nan nan nan nan nan nan nan nan nan nan nan nan nan nan nan nan nan nan nan nan nan nan nan nan nan
nan nan nan nan nan nan nan nan nan nan nan nan 21 23 nan nan nan nan nan nan nan nan nan nan nan nan nan nan nan nan nan nan nan nan nan nan nan nan nan nan nan nan nan nan nan nan nan nan nan nan nan nan nan nan nan nan nan nan nan nan nan nan nan nan nan nan nan nan nan nan nan nan nan nan nan nan nan nan nan nan nan nan nan nan nan
nan nan nan nan nan nan nan nan nan nan 23 21 21 21 nan nan 20 21 20 nan nan nan nan nan nan nan nan nan nan nan nan nan nan nan nan nan nan nan nan nan nan nan nan nan nan nan nan nan nan nan nan nan nan nan nan nan nan nan nan nan nan nan nan nan nan nan nan nan nan nan nan nan nan nan nan nan nan nan nan nan nan nan nan nan nan
nan nan nan nan nan nan nan nan nan nan nan nan 20 21 22 22 23 23 21 22 nan nan nan nan nan nan nan nan nan nan nan nan nan nan nan nan nan nan nan nan nan nan nan nan nan nan nan nan nan nan nan nan nan nan nan nan nan nan nan nan nan nan nan nan nan nan nan nan nan nan nan nan nan nan nan nan nan nan nan nan nan nan nan nan nan
nan nan nan nan nan nan nan nan nan 25 25 26 24 22 21 23 24 23 22 nan nan 21 20 20 nan nan nan nan nan nan nan nan nan nan nan nan nan nan nan nan nan nan nan nan nan nan nan nan nan nan nan nan nan nan nan nan nan nan nan nan nan nan nan nan nan nan nan nan nan nan nan nan nan nan nan nan nan nan nan nan nan nan nan nan nan
nan nan nan nan nan nan nan nan nan 28 27 27 26 25 23 22 20 22 nan nan nan nan nan nan nan nan nan nan nan nan nan nan nan nan nan nan nan nan nan nan nan nan nan nan nan nan nan nan nan nan nan nan nan nan nan nan nan nan nan nan nan nan nan nan nan nan nan nan nan nan nan nan nan nan nan nan nan nan nan nan nan nan nan nan nan
nan nan nan nan nan nan nan 30 nan nan nan nan 24 nan 21 nan 24 20 nan nan nan nan nan nan nan nan nan nan nan nan nan nan nan nan nan nan nan nan nan nan nan nan nan nan nan nan nan nan nan nan nan nan nan nan nan nan nan nan nan nan nan nan nan nan nan nan nan nan nan nan nan nan nan nan nan nan nan nan nan nan nan nan nan nan nan
nan nan nan nan 29 nan 29 nan nan nan nan nan nan 23 22 nan nan 19 nan nan nan nan nan nan nan nan nan nan nan nan nan 27 29 27 24 nan nan nan nan nan nan nan nan nan nan nan nan nan nan nan nan nan nan nan nan nan nan nan nan nan nan nan nan nan nan nan nan nan nan nan nan nan nan nan nan nan nan nan nan nan nan nan nan nan nan
20 nan nan nan nan nan 29 28 nan nan nan nan nan 29 26 nan nan nan nan nan nan nan nan nan nan 24 24 nan 24 30 31 31 33 33 32 30 28 27 nan nan nan nan nan nan nan nan nan nan nan nan nan nan nan nan nan nan nan nan nan nan nan nan nan nan nan nan nan nan nan nan nan nan nan nan nan nan nan nan nan nan nan nan nan nan nan
17 20 nan nan nan nan nan 27 27 28 nan nan nan 30 27 23 23 nan nan nan nan nan nan nan nan nan nan 25 27 29 29 28 30 34 34 34 34 34 35 nan nan nan nan nan nan nan nan nan nan nan nan nan nan nan nan nan nan nan nan nan nan nan nan nan nan nan nan nan nan nan nan nan nan nan nan nan nan nan nan nan nan nan nan nan nan
19 19 nan nan nan nan nan nan nan nan nan 25 29 29 27 26 25 nan nan nan nan nan nan nan nan 26 26 27 27 26 27 29 nan nan 35 36 37 38 nan nan nan nan nan nan nan nan nan nan nan nan nan nan nan nan nan nan nan nan nan nan nan nan nan nan nan nan nan nan nan nan nan nan nan nan nan nan nan nan nan nan nan nan nan nan nan
22 22 23 nan nan nan nan 27 26 nan nan nan nan nan nan 29 28 27 30 nan 32 nan nan nan nan 28 28 29 30 31 32 37 nan nan nan nan nan nan nan nan nan nan nan nan nan nan nan nan nan nan nan nan nan nan nan nan nan nan nan nan nan nan nan nan nan nan nan nan nan nan nan nan nan nan nan nan nan nan nan nan nan nan nan nan nan
25 25 26 28 26 25 26 28 29 28 nan nan nan nan nan 34 33 30 29 32 34 nan nan nan nan 32 31 32 34 35 nan nan nan nan nan nan nan nan nan nan nan nan nan nan nan nan nan nan nan nan nan nan nan nan nan nan nan nan nan nan nan nan nan nan nan nan nan nan nan nan nan nan nan nan nan nan nan nan nan nan nan nan nan nan nan
30 30 27 24 25 nan nan 31 32 nan nan nan 29 nan nan 37 nan nan nan nan nan nan nan nan nan nan 36 38 nan nan nan nan nan nan nan nan nan nan nan nan nan nan nan nan nan nan nan nan nan nan nan nan nan nan nan nan nan nan nan nan nan nan nan nan nan nan nan nan nan nan nan nan nan nan nan nan nan nan nan nan nan nan nan nan nan
31 31 nan 29 29 33 nan nan nan nan nan 31 32 nan nan nan nan nan nan nan nan nan nan nan nan nan nan nan nan nan nan nan nan nan nan nan nan nan nan nan nan nan nan nan nan nan nan nan nan nan nan nan nan nan nan nan nan nan nan nan nan nan nan nan nan nan nan nan nan nan nan nan nan nan nan nan nan nan nan nan nan nan nan nan nan
35 36 36 34 34 nan nan nan nan nan 36 34 36 nan nan nan nan nan nan nan nan nan nan nan nan nan nan nan nan nan nan nan nan nan nan nan nan nan nan nan nan nan nan nan nan nan nan nan nan nan nan nan nan nan nan nan nan nan nan nan nan nan nan nan nan nan nan nan nan nan nan nan nan nan nan nan nan nan nan nan nan nan nan nan nan
39 40 40 nan 38 38 39 nan nan 43 40 40 40 nan nan nan nan nan nan nan nan nan nan nan nan nan nan nan nan nan nan nan nan nan nan nan nan nan nan nan nan nan nan nan nan nan nan nan nan nan nan nan nan nan nan nan nan nan nan nan nan nan nan nan nan nan nan nan nan nan nan nan nan nan nan nan nan nan nan nan nan nan nan nan nan
37 38 nan nan nan 40 41 nan nan 46 44 43 43 44 nan nan nan nan nan nan nan nan nan nan nan nan nan nan nan nan nan nan nan nan nan nan nan nan nan nan nan nan nan nan nan nan nan nan nan nan nan nan nan nan nan nan nan nan nan nan nan nan nan nan nan nan nan nan nan nan nan nan nan nan nan nan nan nan nan nan nan nan nan nan nan
Wind_Direction
227 210 217 231 249 259 260 259 254 251 255 252 258 266 273 280 284 284 277 270 253 244 249 258 261 256 253 250 nan nan 252 241 241 255 262 253 244 248 257 262 266 269 273 274 274 272 267 261 258 268 272 268 266 264 264 263 263 263 261 259 nan nan nan nan nan nan nan nan nan nan nan nan nan nan nan nan nan nan nan nan nan nan nan nan nan
198 205 234 247 261 266 263 261 258 251 253 252 260 270 279 275 277 274 262 253 245 241 252 258 257 254 252 252 nan nan nan 246 237 233 232 244 250 248 256 249 254 267 267 270 274 273 270 266 261 264 268 271 270 267 264 264 264 264 264 nan nan nan nan nan nan nan nan nan nan nan nan nan nan nan nan nan nan nan nan nan nan nan nan nan nan
246 228 238 259 259 261 259 253 251 253 258 264 267 273 272 271 273 271 264 249 238 248 258 260 255 253 251 246 244 nan nan 250 246 236 234 230 227 239 245 249 246 261 268 258 261 272 271 269 263 264 267 266 268 267 265 263 263 263 264 nan nan nan nan nan nan nan nan nan nan nan nan nan nan nan nan nan nan nan nan nan nan nan nan nan nan
276 286 274 260 255 253 251 253 257 268 272 273 272 271 272 270 267 268 264 255 254 253 258 262 256 255 256 253 250 251 251 255 254 247 248 252 242 228 218 213 248 254 262 256 251 271 271 270 268 261 260 262 265 265 266 265 261 259 261 262 nan nan nan nan nan nan nan nan nan nan nan nan nan nan nan nan nan nan nan nan nan nan nan nan nan
243 266 270 268 263 258 257 259 263 269 272 276 281 280 268 269 263 259 256 255 253 253 259 262 262 254 258 263 258 252 253 254 258 251 256 268 265 266 271 252 235 249 256 252 247 263 268 270 268 263 258 257 261 258 263 264 261 259 258 258 258 nan nan nan nan nan nan nan nan nan nan nan nan nan nan nan nan nan nan nan nan nan nan nan nan
247 236 239 256 256 273 279 274 279 278 275 278 280 278 276 269 268 266 267 261 257 253 257 260 267 261 254 248 239 246 247 248 254 250 253 264 260 256 245 239 250 250 253 260 257 254 263 267 269 264 261 259 259 255 263 258 260 259 257 257 257 259 nan nan nan nan nan nan nan nan nan nan nan nan nan nan nan nan nan nan nan nan nan nan nan
297 288 253 271 268 275 280 280 276 275 282 284 286 283 273 275 264 253 253 259 259 255 257 268 278 267 250 234 237 248 247 254 258 255 258 269 259 248 246 253 268 270 269 265 262 259 257 259 265 264 263 265 261 259 258 255 258 261 259 257 257 258 260 258 nan nan nan nan nan nan nan nan nan nan nan nan nan nan nan nan nan nan nan nan nan
300 290 290 290 291 292 293 280 276 272 271 273 270 273 270 266 257 259 248 242 255 253 257 267 279 285 268 249 247 260 262 259 266 271 269 271 280 281 263 269 278 290 294 287 276 269 266 263 259 258 261 264 271 269 264 263 262 264 262 260 259 260 259 259 257 nan nan nan nan nan nan nan nan nan nan nan nan nan nan nan nan nan nan nan nan
307 302 299 299 294 291 292 279 277 273 271 261 261 269 264 266 250 248 251 243 248 254 248 255 263 292 293 258 252 254 264 271 275 282 270 266 286 277 269 269 282 281 286 286 281 276 267 262 264 271 274 272 270 269 272 272 270 270 267 265 265 262 262 261 257 259 259 nan nan nan nan nan nan nan nan nan nan nan nan nan nan nan nan nan nan
317 315 312 306 297 292 282 279 279 273 274 270 278 268 268 267 252 233 235 243 247 249 243 240 243 252 272 269 263 258 264 278 284 285 280 274 272 274 278 291 293 292 288 289 288 282 279 286 289 267 256 256 258 265 255 269 276 270 275 270 270 267 265 266 264 261 263 262 261 nan nan nan nan nan nan nan nan nan nan nan nan nan nan nan nan
320 313 304 298 283 275 277 273 277 283 282 275 277 261 246 242 250 235 226 237 253 253 261 247 244 259 278 284 270 268 272 271 282 288 295 304 304 291 286 291 291 295 300 299 294 293 298 303 299 278 262 256 261 265 258 250 253 268 270 272 273 273 271 270 271 267 266 264 263 nan nan nan nan nan nan nan nan nan nan nan nan nan nan nan nan
315 312 296 288 280 281 289 289 282 283 277 276 275 273 263 242 234 248 242 230 246 253 253 258 254 258 272 269 273 276 259 255 262 284 287 286 291 291 293 290 284 292 299 307 305 312 306 299 302 289 284 285 280 278 263 254 252 249 246 246 261 269 267 265 268 275 272 268 266 262 nan nan nan nan nan nan nan nan nan nan nan nan nan nan nan
311 302 294 290 285 282 282 283 280 278 280 284 278 282 276 263 246 247 254 252 250 256 261 262 258 229 233 259 258 252 255 250 248 268 269 269 272 279 281 281 285 295 296 297 293 300 306 307 301 294 286 296 277 273 271 266 262 256 252 249 244 247 257 259 255 263 271 272 268 267 265 nan nan nan nan nan nan nan nan nan nan nan nan nan nan
308 297 290 286 283 279 274 277 274 274 278 284 267 269 275 268 261 250 246 262 259 267 266 247 218 251 261 252 255 256 268 267 239 245 263 nan 270 278 278 285 291 285 279 284 280 283 296 309 319 301 277 284 296 297 280 270 258 251 246 245 248 252 247 255 255 249 262 261 263 268 271 265 264 nan nan nan nan nan nan nan nan nan nan nan nan
304 294 293 294 294 293 291 286 284 283 277 272 271 266 272 266 253 257 250 249 260 261 272 257 263 259 259 260 260 268 254 254 nan 234 255 nan nan nan 273 265 264 273 281 281 280 290 293 302 304 294 270 284 290 280 275 274 265 253 246 238 236 235 245 250 252 249 252 257 265 266 272 270 269 267 nan nan nan nan nan nan nan nan nan nan nan
296 293 289 291 292 290 287 287 288 289 292 282 270 270 269 282 286 286 278 265 261 256 253 261 271 272 258 269 283 278 277 264 nan nan nan nan nan nan 268 272 274 274 270 272 279 283 292 288 283 273 270 272 278 284 274 276 266 254 243 240 231 227 225 235 252 261 263 277 268 261 265 267 270 277 272 265 nan nan nan nan nan nan nan nan nan
nan nan 288 nan nan nan nan nan nan 276 277 271 270 279 288 297 296 288 285 285 274 269 252 247 246 255 279 nan nan 265 275 282 nan nan nan nan nan 254 262 269 271 270 272 271 272 276 281 277 273 270 266 266 269 264 262 264 262 257 253 246 243 nan nan 240 251 280 300 304 297 285 264 271 283 283 277 269 266 263 nan nan nan nan nan nan nan
nan nan nan nan nan nan nan nan nan nan nan nan nan nan nan nan 276 279 270 280 285 273 259 243 255 253 261 270 275 285 290 297 nan nan nan nan nan nan nan 263 271 275 nan 280 271 272 273 275 272 271 268 267 267 264 264 262 263 263 nan nan nan nan nan nan 251 264 273 281 291 295 308 300 266 248 251 278 278 275 271 268 nan nan nan nan nan
nan nan nan 295 nan 283 nan nan nan nan 258 nan nan nan nan 242 246 252 258 268 268 266 274 266 250 245 252 256 259 261 281 279 nan nan nan nan nan nan nan nan 276 283 282 275 270 nan 258 266 271 272 270 269 nan 269 267 264 263 262 nan nan nan nan nan 252 249 249 261 264 268 287 297 295 292 288 279 263 283 279 278 272 269 269 270 268 266
nan nan nan nan nan nan nan nan nan nan nan nan nan nan 238 231 240 247 250 262 270 280 277 277 268 251 248 249 251 253 260 nan nan nan nan nan nan nan nan nan nan nan nan nan nan nan nan 263 269 nan nan nan nan nan nan nan nan nan nan nan nan nan nan 253 251 249 250 257 261 262 270 280 285 290 285 264 248 247 240 244 240 238 242 254 254
nan nan nan nan nan nan nan nan nan nan nan nan nan nan 240 nan 240 243 249 249 254 262 264 264 261 262 255 245 249 255 256 260 267 nan nan nan nan nan nan nan nan nan nan nan nan nan nan nan nan nan nan nan nan nan nan nan nan nan nan nan nan nan nan 255 nan nan nan 252 254 256 258 262 264 268 267 265 267 269 264 254 244 246 251 251 252
nan nan nan nan nan nan nan nan nan nan nan nan nan nan nan nan nan nan nan nan nan nan nan nan 261 264 264 271 264 262 260 262 264 nan nan nan nan nan nan nan nan nan nan nan nan nan nan nan nan nan nan nan nan nan nan nan nan nan nan nan nan nan nan nan nan nan nan nan nan 257 257 257 256 256 nan nan nan nan 256 254 251 249 252 266 274
nan nan nan nan nan nan nan nan nan nan nan nan nan nan nan nan nan nan nan nan nan nan nan nan nan nan 260 275 282 282 283 278 286 nan nan nan nan nan nan nan nan nan nan nan nan nan nan nan nan nan nan nan nan nan nan nan nan nan nan nan nan nan nan nan nan nan nan nan nan nan nan nan nan nan nan nan nan nan nan nan nan nan nan nan nan
nan nan nan nan nan nan nan nan nan nan nan nan nan nan nan nan nan nan nan nan nan nan nan nan nan nan nan nan nan 279 279 286 286 nan nan nan nan nan nan nan nan nan nan nan nan nan nan nan nan nan nan nan nan nan nan nan nan nan nan nan nan nan nan nan nan nan nan nan nan nan nan nan nan nan nan nan nan nan nan nan nan nan nan nan nan
nan nan nan nan nan nan nan nan nan nan nan nan nan nan nan nan nan nan nan nan nan nan nan nan nan nan nan nan nan nan 276 280 nan nan nan nan nan nan nan nan nan nan nan nan nan nan nan nan nan nan nan nan nan nan nan nan nan nan nan nan nan nan nan nan nan nan nan nan nan nan nan nan nan nan nan nan nan nan nan nan nan nan nan nan nan
nan nan nan nan nan nan nan nan nan nan nan nan nan nan nan nan nan nan nan nan nan nan nan nan nan nan nan nan nan nan nan nan nan nan nan nan nan nan nan nan nan nan nan nan nan nan nan nan nan nan nan nan nan nan nan nan nan nan nan nan nan nan nan nan nan nan nan nan nan nan nan nan nan nan nan nan nan nan nan nan nan nan nan nan nan
nan nan nan nan nan nan nan nan nan nan nan nan nan nan nan nan nan nan nan nan nan nan nan nan nan nan nan nan nan nan nan nan 297 307 311 nan nan nan nan nan nan nan nan nan nan nan nan nan nan nan nan nan nan nan nan nan nan nan nan nan nan nan nan nan nan nan nan nan nan nan nan nan nan nan nan nan nan nan nan nan nan nan nan nan nan
nan nan nan nan nan nan nan nan nan nan nan nan nan nan nan nan nan nan nan nan nan nan nan nan nan nan nan nan nan nan nan nan nan nan nan nan nan nan nan nan nan nan nan nan nan nan nan nan nan nan nan nan nan nan nan nan nan nan nan nan nan nan nan nan nan nan nan nan nan nan nan nan nan nan nan nan nan nan nan nan nan nan nan nan nan
nan nan nan nan nan nan nan nan nan nan nan nan nan nan nan nan nan nan nan nan nan nan nan nan nan nan nan nan nan nan nan nan nan nan nan nan nan nan nan nan nan nan nan nan nan nan nan nan nan nan nan nan nan nan nan nan nan nan nan nan nan nan nan nan nan nan nan nan nan nan nan nan nan nan nan nan nan nan nan nan nan nan nan nan nan
nan nan nan nan nan nan nan nan nan nan nan nan nan nan nan nan nan nan nan nan nan nan nan nan nan nan nan nan nan nan nan nan nan nan nan nan nan nan nan nan nan nan nan nan nan nan nan nan nan nan nan nan nan nan nan nan nan nan nan nan nan nan nan nan nan nan nan nan nan nan nan nan nan nan nan nan nan nan nan nan nan nan nan nan nan
nan nan nan nan nan nan nan nan nan nan nan nan nan nan nan nan nan nan nan nan nan nan nan nan nan nan nan nan nan nan nan nan nan nan nan nan nan nan nan nan nan nan nan nan nan nan nan nan nan nan nan nan nan nan nan nan nan nan nan nan nan nan nan nan nan nan nan nan nan nan nan nan nan nan nan nan nan nan nan nan nan nan nan nan nan
nan nan nan nan nan nan nan nan nan nan nan nan nan nan nan nan nan nan nan nan nan nan nan nan nan nan nan nan nan nan nan nan nan nan nan nan nan nan nan nan nan nan nan nan nan nan nan nan nan nan nan nan nan nan nan nan nan nan nan nan nan nan nan nan nan nan nan nan nan nan nan nan nan nan nan nan nan nan nan nan nan nan nan nan nan
nan nan nan nan nan nan nan nan nan nan nan nan nan nan nan nan nan nan nan nan nan nan nan nan nan nan nan nan nan nan nan nan nan nan nan nan nan nan nan nan nan nan nan nan nan nan nan nan nan nan nan nan nan nan nan nan nan nan nan nan nan nan nan nan nan nan nan nan nan nan nan nan nan nan nan nan nan nan nan nan nan nan nan nan nan
nan nan nan nan nan nan nan nan nan nan nan nan nan nan nan nan nan nan nan nan nan nan nan nan nan nan nan nan nan nan nan nan nan nan nan nan nan nan nan nan nan nan nan nan nan nan nan nan nan nan nan nan nan nan nan nan nan nan nan nan nan nan nan nan nan nan nan nan nan nan nan nan nan nan nan nan nan nan nan nan nan nan nan nan nan
nan nan nan nan nan nan nan nan nan nan nan nan 263 270 nan nan nan nan nan nan nan nan nan nan nan nan nan nan nan nan nan nan nan nan nan nan nan nan nan nan nan nan nan nan nan nan nan nan nan nan nan nan nan nan nan nan nan nan nan nan nan nan nan nan nan nan nan nan nan nan nan nan nan nan nan nan nan nan nan nan nan nan nan nan nan
nan nan nan nan nan nan nan nan nan nan 270 269 268 276 nan nan 269 273 277 nan nan nan nan nan nan nan nan nan nan nan nan nan nan nan nan nan nan nan nan nan nan nan nan nan nan nan nan nan nan nan nan nan nan nan nan nan nan nan nan nan nan nan nan nan nan nan nan nan nan nan nan nan nan nan nan nan nan nan nan nan nan nan nan nan nan
nan nan nan nan nan nan nan nan nan nan nan nan 270 270 271 276 278 278 278 277 nan nan nan nan nan nan nan nan nan nan nan nan nan nan nan nan nan nan nan nan nan nan nan nan nan nan nan nan nan nan nan nan nan nan nan nan nan nan nan nan nan nan nan nan nan nan nan nan nan nan nan nan nan nan nan nan nan nan nan nan nan nan nan nan nan
nan nan nan nan nan nan nan nan nan 266 259 254 254 262 270 277 283 286 287 nan nan 282 280 274 nan nan nan nan nan nan nan nan nan nan nan nan nan nan nan nan nan nan nan nan nan nan nan nan nan nan nan nan nan nan nan nan nan nan nan nan nan nan nan nan nan nan nan nan nan nan nan nan nan nan nan nan nan nan nan nan nan nan nan nan nan
nan nan nan nan nan nan nan nan nan 266 265 263 265 267 270 272 279 285 nan nan nan nan nan nan nan nan nan nan nan nan nan nan nan nan nan nan nan nan nan nan nan nan nan nan nan nan nan nan nan nan nan nan nan nan nan nan nan nan nan nan nan nan nan nan nan nan nan nan nan nan nan nan nan nan nan nan nan nan nan nan nan nan nan nan nan
nan nan nan nan nan nan nan 266 nan nan nan nan 278 nan 288 nan 282 281 nan nan nan nan nan nan nan nan nan nan nan nan nan nan nan nan nan nan nan nan nan nan nan nan nan nan nan nan nan nan nan nan nan nan nan nan nan nan nan nan nan nan nan nan nan nan nan nan nan nan nan nan nan nan nan nan nan nan nan nan nan nan nan nan nan nan nan
nan nan nan nan 266 nan 265 nan nan nan nan nan nan 280 282 nan nan 280 nan nan nan nan nan nan nan nan nan nan nan nan nan 275 270 271 269 nan nan nan nan nan nan nan nan nan nan nan nan nan nan nan nan nan nan nan nan nan nan nan nan nan nan nan nan nan nan nan nan nan nan nan nan nan nan nan nan nan nan nan nan nan nan nan nan nan nan
263 nan nan nan nan nan 274 271 nan nan nan nan nan 281 280 nan nan nan nan nan nan nan nan nan nan 278 282 nan 280 280 279 275 272 266 266 270 277 282 nan nan nan nan nan nan nan nan nan nan nan nan nan nan nan nan nan nan nan nan nan nan nan nan nan nan nan nan nan nan nan nan nan nan nan nan nan nan nan nan nan nan nan nan nan nan nan
272 281 nan nan nan nan nan 278 272 270 nan nan nan 277 279 285 289 nan nan nan nan nan nan nan nan nan nan 281 280 281 277 273 267 267 270 277 280 279 278 nan nan nan nan nan nan nan nan nan nan nan nan nan nan nan nan nan nan nan nan nan nan nan nan nan nan nan nan nan nan nan nan nan nan nan nan nan nan nan nan nan nan nan nan nan nan
276 280 nan nan nan nan nan nan nan nan nan 278 282 283 285 287 284 nan nan nan nan nan nan nan nan 280 279 278 278 276 274 273 nan nan 276 281 283 282 nan nan nan nan nan nan nan nan nan nan nan nan nan nan nan nan nan nan nan nan nan nan nan nan nan nan nan nan nan nan nan nan nan nan nan nan nan nan nan nan nan nan nan nan nan nan nan
276 278 282 nan nan nan nan 281 278 nan nan nan nan nan nan 284 278 278 284 nan 285 nan nan nan nan 280 276 275 270 267 269 271 nan nan nan nan nan nan nan nan nan nan nan nan nan nan nan nan nan nan nan nan nan nan nan nan nan nan nan nan nan nan nan nan nan nan nan nan nan nan nan nan nan nan nan nan nan nan nan nan nan nan nan nan nan
264 269 278 280 275 272 273 276 275 275 nan nan nan nan nan 280 276 279 281 284 282 nan nan nan nan 274 278 276 271 268 nan nan nan nan nan nan nan nan nan nan nan nan nan nan nan nan nan nan nan nan nan nan nan nan nan nan nan nan nan nan nan nan nan nan nan nan nan nan nan nan nan nan nan nan nan nan nan nan nan nan nan nan nan nan nan
265 269 272 272 273 nan nan 272 275 nan nan nan 282 nan nan 280 nan nan nan nan nan nan nan nan nan nan 276 276 nan nan nan nan nan nan nan nan nan nan nan nan nan nan nan nan nan nan nan nan nan nan nan nan nan nan nan nan nan nan nan nan nan nan nan nan nan nan nan nan nan nan nan nan nan nan nan nan nan nan nan nan nan nan nan nan nan
267 272 nan 275 276 277 nan nan nan nan nan 274 274 nan nan nan nan nan nan nan nan nan nan nan nan nan nan nan nan nan nan nan nan nan nan nan nan nan nan nan nan nan nan nan nan nan nan nan nan nan nan nan nan nan nan nan nan nan nan nan nan nan nan nan nan nan nan nan nan nan nan nan nan nan nan nan nan nan nan nan nan nan nan nan nan
271 274 277 275 274 nan nan nan nan nan 274 271 271 nan nan nan nan nan nan nan nan nan nan nan nan nan nan nan nan nan nan nan nan nan nan nan nan nan nan nan nan nan nan nan nan nan nan nan nan nan nan nan nan nan nan nan nan nan nan nan nan nan nan nan nan nan nan nan nan nan nan nan nan nan nan nan nan nan nan nan nan nan nan nan nan
273 275 275 nan 274 273 272 nan nan 275 273 272 275 nan nan nan nan nan nan nan nan nan nan nan nan nan nan nan nan nan nan nan nan nan nan nan nan nan nan nan nan nan nan nan nan nan nan nan nan nan nan nan nan nan nan nan nan nan nan nan nan nan nan nan nan nan nan nan nan nan nan nan nan nan nan nan nan nan nan nan nan nan nan nan nan
269 271 nan nan nan 271 270 nan nan 272 271 271 273 272 nan nan nan nan nan nan nan nan nan nan nan nan nan nan nan nan nan nan nan nan nan nan nan nan nan nan nan nan nan nan nan nan nan nan nan nan nan nan nan nan nan nan nan nan nan nan nan nan nan nan nan nan nan nan nan nan nan nan nan nan nan nan nan nan nan nan nan nan nan nan nan